Tracking 30995 objects as of 7-Jul-2025
HD Live streaming from Space Station
objects crossing your sky now

STARLINK-3928

Track STARLINK-3928 now!
10-day predictions
STARLINK-3928 is classified as:


NORAD ID: 52606
Int'l Code: 2022-052J
Perigee: 546.0 km
Apogee: 547.8 km
Inclination: 53.2 °
Period: 95.4 minutes
Semi major axis: 6917 km
RCS: Unknown
Launch date: May 14, 2022
Source: United States (US)
Launch site: AIR FORCE EASTERN TEST RANGE (AFETR)
Your satellite tracking list
KAI-1
Track 1 satellite(s)




NASA's NSSDC Master Catalog

Two Line Element Set (TLE):
1 52606U 22052J   25187.57025579  .00000412  00000-0  43951-4 0  9996
2 52606  53.2182 303.9933 0001292 104.5083 255.6053 15.08843587173700
Source of the keplerian elements: AFSPC